Location: Hobi?a Gr?di?te
(45.4833°N, 22.7833°E)
Time: 11:48:34
(UTC+00:00)

Cosmos 2360 - Pass Details

Date: 28 January 2023
Orbit: 845 x 857 km, 70.8° (Epoch: 21 March)

Event Time Altitude Azimuth Distance (km) Brightness Sun altitude
Rises 15:56:13 0° 204° (SSW) 3,390 8.1 -5.2°
Reaches altitude 10° 15:58:39 10° 204° (SSW) 2,459 7.3 -5.6°
Maximum altitude 16:04:19 90° 131° (SE) 852 4.3 -6.5°
Drops below altitude 10° 16:10:02 10° 26° (NNE) 2,481 6.2 -7.5°
Sets 16:12:29 0° 27° (NNE) 3,422 6.9 -7.9°
